Tracking 29892 objects as of 21-Nov-2024
HD Live streaming from Space Station
objects crossing your sky now

SL-3 DEB

Track SL-3 DEB now!
10-day predictions


NORAD ID: 14632
Int'l Code: 1977-002E
Perigee: 859.6 km
Apogee: 937.5 km
Inclination: 81.3 °
Period: 102.8 minutes
Semi major axis: 7269 km
RCS: 0.006 m2 (small)
Launch date: January 6, 1977
Source: Commonwealth of Independent States (former USSR) (CIS)
Launch site: PLESETSK MISSILE AND SPACE COMPLEX (PKMTR)

Note: This is SATELLITE DEBRIS
Your satellite tracking list
Your tracking list is empty




NASA's NSSDC Master Catalog

Two Line Element Set (TLE):
1 14632U 77002E   24325.90128062  .00000138  00000-0  83015-4 0  9999
2 14632  81.2775  10.2704 0053584  85.0009 336.9691 14.00695284268214
Source of the keplerian elements: AFSPC